Meteopurmerend
purmerend
Purmerend - Baaienwijk



My webcam  My webcam


waarschuwing voor Onweer Meer informatie blitzortung!


Regen radar Meer informatie rain snow radar


Bezoek onze andere website:

CandyAppleRed WebdesignWebdesign Purmerend Candy Apple Red

MeteopurmerendBlog

Template documentation
and downloads



Onweer van: 19-06-2019 10:00 tot: 23:00 waarschuwing voor: Onweer niveau: Geel info button
Enkele onweersbuien, mogelijk met hagel en windstoten tot ca. 75 km/uur.Verkeer en buitenactiviteiten kunnen hinder ondervinden.Mijd open water en open gebied, schuil niet onder bomen.Volg weerberichten en waarschuwingen.

15 daagse weersverwachting Alta (NO)

  • Overzicht
  • Per uur
  • 15 dagen
  • Extra
  • Vergelijk
  • Kaarten
  • Dagkaart
  • Meer »
  • Info
  • Statistieken
  • Directe link
    Temp 6h Neerslag Wind  
Midzomernacht Vandaag
14:00
 
3
20:00
 
2
Midzomernacht Morgen
02:00
 
1
08:00
 
1
14:00
12°
 
3
20:00
11°
 
2
Midzomernacht Vrijdag 21 Jun
02:00
10°
 
2
08:00
12°
 
3
14:00
12°
6.5 mm
2
20:00
11°
14.4 mm
1
Midzomernacht Zaterdag 22 Jun
02:00
8.6 mm
1
08:00
42.5 mm
2
Locatie info
Region: Finnmark
Latitude: 69.9684°N
Longitude: 23.2708°E
65 masl
Postcode: 9511
Temp/Neerslag /Baro Onweer/Dauwpunt
    Temp Baro 1h Neerslag Dauwpunt Wind UV Bewolking  
Midzomernacht Vandaag
14:00
Voelt als: 7.8°
1009.8 hPa
63%
4.6°
3
Windvlaag: 3.5 m/s
66%
15:00
10°
Voelt als: 7.9°
1010.2 hPa
71%
4.5°
3
Windvlaag: 3.7 m/s
50%
16:00
10°
Voelt als: 7.9°
1010.5 hPa
67%
4.3°
3
Windvlaag: 3.8 m/s
62%
17:00
10°
Voelt als: 7.7°
1010.8 hPa
26%
4.2°
4
Windvlaag: 4 m/s
71%
18:00
Voelt als: 7.4°
1010.9 hPa
20%
4.5°
3
Windvlaag: 4.1 m/s
80%
19:00
Voelt als: 7.0°
1011.0 hPa
23%
4.5°
3
Windvlaag: 4 m/s
74%
20:00
Voelt als: 7.0°
1011.3 hPa
15%
4.5°
2
Windvlaag: 3.5 m/s
66%
21:00
Voelt als: 7.2°
1011.7 hPa
14%
4.3°
2
Windvlaag: 2.4 m/s
38%
22:00
Voelt als: 7.2°
1012.1 hPa
14%
4.2°
1
Windvlaag: 1.6 m/s
57%
23:00
Voelt als: 7.3°
1012.1 hPa
14%
4.3°
1
Windvlaag: 0.9 m/s
50%
Midzomernacht Morgen
00:00
Voelt als: 6.9°
1012.5 hPa
62%
4.5°
1
Windvlaag: 0.5 m/s
65%
01:00
1012.7 hPa
63%
4.8°
1
Windvlaag: 0.8 m/s
61%
02:00
1013.0 hPa
14%
4.9°
1
Windvlaag: 0.8 m/s
58%
03:00
Voelt als: 6.6°
1013.1 hPa
17%
4.7°
1
Windvlaag: 1.1 m/s
60%
04:00
1013.3 hPa
22%
4.5°
1
Windvlaag: 1 m/s
62%
05:00
Voelt als: 6.9°
1013.3 hPa
18%
4.3°
1
Windvlaag: 1.1 m/s
66%
06:00
1013.3 hPa
14%
4.2°
1
Windvlaag: 1.2 m/s
61%
07:00
1013.3 hPa
17%
4.1°
1
Windvlaag: 1.9 m/s
46%
08:00
Voelt als: 8.2°
1013.3 hPa
16%
4.0°
1
Windvlaag: 2.2 m/s
44%
09:00
Voelt als: 8.3°
1013.4 hPa
18%
3.7°
2
Windvlaag: 3 m/s
22%
10:00
10°
Voelt als: 8.8°
1013.4 hPa
14%
3.6°
2
Windvlaag: 3.2 m/s
18%
11:00
11°
1013.5 hPa
14%
3.9°
3
Windvlaag: 3.7 m/s
15%
12:00
11°
1013.5 hPa
14%
4.2°
3
Windvlaag: 4.2 m/s
12%
13:00
11°
1013.7 hPa
14%
4.4°
3
Windvlaag: 4.1 m/s
11%
14:00
12°
1013.8 hPa
14%
4.3°
3
Windvlaag: 4.1 m/s
9%
15:00
12°
1013.7 hPa
14%
4.5°
3
Windvlaag: 4 m/s
3%
16:00
12°
1013.6 hPa
14%
4.5°
3
Windvlaag: 4.1 m/s
2%
17:00
12°
1013.5 hPa
14%
4.5°
3
Windvlaag: 4.1 m/s
1%
18:00
12°
1013.1 hPa
14%
4.4°
3
Windvlaag: 4.1 m/s
0%
19:00
12°
1012.9 hPa
14%
4.3°
2
Windvlaag: 4.3 m/s
3%
20:00
11°
1012.8 hPa
14%
4.2°
2
Windvlaag: 4.7 m/s
10%
21:00
11°
1012.8 hPa
14%
4.0°
2
Windvlaag: 4.3 m/s
13%
22:00
10°
Voelt als: 9.6°
1012.9 hPa
14%
4.2°
1
Windvlaag: 3.4 m/s
15%
23:00
Voelt als: 9.3°
1012.8 hPa
14%
4.5°
1
Windvlaag: 2.3 m/s
40%
Midzomernacht Vrijdag 21 Jun
00:00
Voelt als: 8.6°
1012.8 hPa
14%
4.7°
2
Windvlaag: 1.9 m/s
48%
01:00
Voelt als: 8.7°
1012.7 hPa
14%
4.9°
2
Windvlaag: 2 m/s
59%
02:00
10°
Voelt als: 9.0°
1012.4 hPa
14%
5.2°
2
Windvlaag: 1.9 m/s
70%
03:00
10°
Voelt als: 9.4°
1012.1 hPa
14%
5.4°
2
Windvlaag: 2.8 m/s
73%
04:00
10°
1011.8 hPa
14%
5.5°
2
Windvlaag: 3.2 m/s
78%
05:00
11°
1011.5 hPa
14%
5.1°
2
Windvlaag: 3.5 m/s
77%
06:00
11°
1010.7 hPa
20%
4.9°
2
Windvlaag: 3.6 m/s
84%
07:00
11°
1010.1 hPa
70%
5.3°
2
Windvlaag: 3.5 m/s
72%
08:00
12°
1009.7 hPa
81%
5.6°
3
Windvlaag: 3.8 m/s
85%
09:00
12°
1009.4 hPa 0.4 mm
82%
6.4°
3
Windvlaag: 4.3 m/s
83%
10:00
12°
1009.2 hPa 0.5 mm
82%
7.8°
3
Windvlaag: 4.4 m/s
86%
11:00
12°
1008.9 hPa 0.9 mm
100%
10.5°
3
Windvlaag: 5 m/s
94%
12:00
12°
1008.6 hPa 1.1 mm
100%
10.3°
3
Windvlaag: 5.6 m/s
94%
13:00
12°
1008.3 hPa 1.7 mm
100%
10.7°
2
Windvlaag: 5.8 m/s
96%
14:00
12°
1007.9 hPa 2.0 mm
100%
10.7°
2
Windvlaag: 5.7 m/s
100%
15:00
12°
1007.5 hPa 2.5 mm
100%
10.9°
2
Windvlaag: 5.3 m/s
100%
16:00
12°
1007.3 hPa 2.8 mm
100%
11.2°
2
Windvlaag: 4.8 m/s
100%
17:00
12°
1007.0 hPa 3.0 mm
100%
11.0°
2
Windvlaag: 4.2 m/s
100%
18:00
12°
1006.7 hPa 2.5 mm
100%
10.8°
2
Windvlaag: 3.8 m/s
97%
19:00
11°
1006.5 hPa 2.0 mm
100%
10.5°
1
Windvlaag: 2.9 m/s
97%
20:00
11°
1006.4 hPa 1.7 mm
100%
10.1°
1
Windvlaag: 1.9 m/s
98%
21:00
11°
1006.4 hPa 1.7 mm
100%
9.8°
1
Windvlaag: 2.2 m/s
100%
22:00
10°
1006.4 hPa 1.4 mm
100%
9.6°
1
Windvlaag: 2 m/s
100%
23:00
10°
Voelt als: 9.9°
1006.2 hPa
100%
9.3°
1
Windvlaag: 1.8 m/s
100%
Midzomernacht Zaterdag 22 Jun
00:00
10°
Voelt als: 9.5°
1006.3 hPa
100%
9.1°
1
Windvlaag: 2.2 m/s
100%
01:00
10°
Voelt als: 9.6°
1006.4 hPa 2.7 mm
100%
9.0°
1
Windvlaag: 2 m/s
100%
02:00
Voelt als: 8.9°
1006.4 hPa 2.8 mm
100%
8.7°
1
Windvlaag: 2.3 m/s
99%
03:00
Voelt als: 8.8°
1005.9 hPa
100%
8.6°
1
Windvlaag: 0.8 m/s
100%
04:00
Voelt als: 8.6°
1005.4 hPa
100%
8.5°
1
Windvlaag: 0.2 m/s
100%
05:00
Voelt als: 8.4°
1005.0 hPa 9.3 mm
100%
8.4°
2
Windvlaag: 0.6 m/s
100%
06:00
Voelt als: 8.2°
1004.5 hPa 11.3 mm
100%
8.3°
2
Windvlaag: 0.5 m/s
100%
07:00
Voelt als: 7.9°
1003.9 hPa 13.0 mm
100%
8.1°
2
Windvlaag: 0.6 m/s
100%
08:00
Voelt als: 7.7°
1003.4 hPa 8.7 mm
100%
8.0°
2
Windvlaag: 0.4 m/s
100%
09:00
Voelt als: 7.9°
1003.1 hPa 15.3 mm
100%
8.2°
2
Windvlaag: 8.6 m/s
100%
10:00
Voelt als: 8.0°
1003.2 hPa 16.4 mm
100%
8.2°
2
Windvlaag: 8.4 m/s
100%
11:00
Voelt als: 8.2°
1003.2 hPa
100%
8.3°
2
Windvlaag: 6.2 m/s
100%
12:00
Voelt als: 8.5°
1003.2 hPa
100%
8.3°
2
Windvlaag: 5 m/s
100%
13:00
Voelt als: 8.5°
1003.2 hPa
100%
8.2°
2
Windvlaag: 4 m/s
100%
Temp/Neerslag /Baro Onweer/Dauwpunt
    Temp Baro Neerslag Dauwpunt Wind Bewolking  
Midzomernacht Vandaag
14:00
Voelt als: 7.8°
1009.8 hPa   4.6°
3
66%
17:00
10°
Voelt als: 7.7°
1010.8 hPa   4.2°
4
71%
20:00
Voelt als: 7.0°
1011.3 hPa   4.5°
2
66%
23:00
Voelt als: 7.3°
1012.1 hPa   4.3°
1
50%
Midzomernacht Morgen
02:00
1013.0 hPa   4.9°
1
58%
05:00
Voelt als: 6.9°
1013.3 hPa   4.3°
1
66%
08:00
Voelt als: 8.2°
1013.3 hPa   4.0°
1
44%
11:00
11°
1013.5 hPa   3.9°
3
15%
14:00
12°
1013.8 hPa   4.3°
3
9%
17:00
12°
1013.5 hPa   4.5°
3
1%
20:00
11°
1012.8 hPa   4.2°
2
10%
23:00
Voelt als: 9.3°
1012.8 hPa   4.5°
1
40%
Midzomernacht Vrijdag 21 Jun
02:00
10°
Voelt als: 9.0°
1012.4 hPa   5.2°
2
70%
05:00
11°
1011.5 hPa   5.1°
2
77%
08:00
12°
1009.7 hPa   5.6°
3
85%
11:00
12°
1008.9 hPa 1.8 mm 10.5°
3
94%
14:00
12°
1007.9 hPa 4.7 mm 10.7°
2
100%
17:00
12°
1007.0 hPa 8.3 mm 11.0°
2
100%
20:00
11°
1006.4 hPa 6.1 mm 10.1°
1
98%
23:00
10°
Voelt als: 9.9°
1006.2 hPa 3.1 mm 9.3°
1
100%
Midzomernacht Zaterdag 22 Jun
02:00
Voelt als: 8.9°
1006.4 hPa 5.5 mm 8.7°
1
99%
05:00
Voelt als: 8.4°
1005.0 hPa 9.3 mm 8.4°
2
100%
08:00
Voelt als: 7.7°
1003.4 hPa 33.1 mm 8.0°
2
100%
11:00
Voelt als: 8.2°
1003.2 hPa 31.7 mm 8.3°
2
100%
14:00
10°
Voelt als: 8.5°
1003.2 hPa 57.2 mm 8.2°
2
100%
17:00
10°
Voelt als: 8.2°
1003.6 hPa 11.6 mm 8.6°
3
92%
20:00
Voelt als: 8.2°
1004.0 hPa 12.8 mm 8.6°
2
92%
23:00
Voelt als: 7.5°
1004.9 hPa 13.8 mm 7.9°
2
92%
Midzomernacht Zondag 23 Jun
02:00
Voelt als: 6.8°
1005.8 hPa 14.3 mm 7.2°
2
92%
05:00
Voelt als: 6.6°
1007.2 hPa 16.2 mm 7.1°
2
92%
08:00
Voelt als: 6.5°
1008.5 hPa 17.7 mm 7.0°
2
92%
11:00
Voelt als: 7.9°
1010.9 hPa 18.2 mm 6.8°
2
92%
14:00
10°
Voelt als: 9.1°
1013.2 hPa 18.9 mm 6.4°
2
92%
17:00
10°
1014.4 hPa 19.0 mm 6.6°
2
91%
20:00
10°
1015.7 hPa 19.2 mm 6.8°
2
91%
23:00
Voelt als: 8.8°
1017.2 hPa 19.4 mm 6.7°
1
91%
Midzomernacht Maandag 24 Jun
02:00
Voelt als: 7.8°
1018.6 hPa 19.5 mm 6.5°
1
91%
05:00
Voelt als: 7.9°
1019.4 hPa 19.5 mm 6.5°
2
92%
08:00
Voelt als: 8.1°
1020.2 hPa 19.5 mm 6.5°
2
92%
11:00
10°
1021.3 hPa 19.6 mm 6.5°
3
92%
14:00
11°
1022.4 hPa 19.7 mm 6.5°
4
92%
17:00
11°
1023.1 hPa 19.7 mm 6.7°
4
91%
20:00
10°
1023.8 hPa 20.0 mm 6.8°
3
89%
23:00
Voelt als: 7.9°
1024.3 hPa 20.0 mm 6.4°
3
88%
Midzomernacht Dinsdag 25 Jun
02:00
Voelt als: 7.0°
1024.9 hPa 20.1 mm 6.0°
2
87%
05:00
Voelt als: 6.6°
1024.8 hPa 20.2 mm 5.7°
3
89%
08:00
Voelt als: 6.7°
1024.8 hPa 20.2 mm 5.4°
4
91%
11:00
10°
Voelt als: 7.7°
1025.0 hPa 20.2 mm 5.8°
4
91%
14:00
11°
1025.1 hPa 20.3 mm 6.2°
5
92%
17:00
10°
1024.5 hPa 20.3 mm 6.2°
4
91%
20:00
10°
Voelt als: 8.3°
1023.8 hPa 20.3 mm 6.2°
3
90%
23:00
Voelt als: 7.6°
1023.0 hPa 20.3 mm 6.0°
3
91%
Midzomernacht Woensdag 26 Jun
02:00
Voelt als: 6.9°
1022.2 hPa 20.3 mm 5.8°
2
91%
05:00
Voelt als: 7.2°
1020.3 hPa 20.3 mm 5.6°
3
91%
08:00
Voelt als: 7.3°
1018.4 hPa 20.5 mm 5.4°
4
92%
11:00
10°
1017.2 hPa   5.9°
4
92%
14:00
11°
1016.1 hPa 41.5 mm 6.1°
4
92%
20:00
10°
Voelt als: 8.3°
1015.3 hPa 41.7 mm 6.6°
3
91%
Midzomernacht Donderdag 27 Jun
02:00
Voelt als: 6.2°
1013.3 hPa 41.7 mm 5.5°
2
90%
08:00
Voelt als: 5.7°
1012.2 hPa 41.8 mm 4.3°
3
91%
14:00
10°
Voelt als: 7.4°
1012.0 hPa 41.8 mm 4.9°
4
92%
20:00
Voelt als: 6.0°
1011.2 hPa 42.4 mm 4.9°
4
90%
Midzomernacht Vrijdag 28 Jun
02:00
Voelt als: 4.7°
1010.6 hPa 44.0 mm 4.1°
2
86%
08:00
Voelt als: 5.0°
1010.9 hPa 44.4 mm 3.7°
4
92%
14:00
Voelt als: 6.7°
1008.6 hPa 44.6 mm 4.0°
4
92%
20:00
Voelt als: 6.6°
1008.2 hPa 44.6 mm 4.7°
3
90%
Midzomernacht Zaterdag 29 Jun
02:00
Voelt als: 4.0°
1015.6 hPa 44.6 mm 2.8°
2
1%
08:00
10°
Voelt als: 9.7°
1012.6 hPa 0.7 mm 4.6°
1
60%
14:00
12°
1011.9 hPa 0.5 mm 5.1°
2
64%
20:00
11°
1011.5 hPa 0.6 mm 5.3°
2
60%
Midzomernacht Zondag 30 Jun
02:00
Voelt als: 8.3°
1011.6 hPa 0.7 mm 5.1°
1
58%
08:00
10°
1011.0 hPa 0.9 mm 4.4°
1
55%
14:00
13°
1010.7 hPa 0.9 mm 5.2°
1
66%
20:00
12°
1010.6 hPa 0.7 mm 5.8°
1
60%
Midzomernacht Maandag 01 Jul
02:00
Voelt als: 8.8°
1010.6 hPa 1.0 mm 5.8°
1
63%
08:00
11°
1009.6 hPa 0.9 mm 6.3°
0
60%
14:00
14°
1009.4 hPa 1.3 mm 6.9°
1
59%
20:00
12°
1009.9 hPa 1.1 mm 6.7°
2
68%
Midzomernacht Dinsdag 02 Jul
02:00
Voelt als: 8.7°
1010.9 hPa 0.7 mm 6.0°
1
60%
08:00
11°
1011.0 hPa 0.6 mm 6.2°
1
55%
14:00
13°
1011.1 hPa 0.6 mm 6.7°
1
65%
20:00
12°
1011.2 hPa 1.0 mm 7.2°
2
69%
Midzomernacht Woensdag 03 Jul
02:00
1011.6 hPa 1.2 mm 6.9°
1
64%
08:00
11°
1010.9 hPa 0.6 mm 6.9°
1
65%
14:00
14°
1010.7 hPa 1.2 mm 7.4°
2
67%
20:00
13°
1010.8 hPa 0.7 mm 7.7°
1
59%
Midzomernacht Donderdag 04 Jul
02:00
10°
1011.3 hPa 0.5 mm 7.1°
0
56%
08:00
13°
1011.1 hPa 0.7 mm 7.7°
1
63%
  CAPE Lifted Index Hail Supercell Tornado SRH 3km CL BTM PRES CL TOP PRES Swiss DWD icon SMHI TS
Midzomernacht Vandaag
14:00 2 J/kg 8.8 K 0 % 0 % 0 % 0 m²/s² 0 0 9.28 3
15:00 1 J/kg 8.3 K 0 % 0 % 0 % 0 m²/s² 0 0 8.84 2
16:00 0 J/kg 7.8 K 0 % 0 % 0 % 0 m²/s² 0 0 8.25 3
17:00 0 J/kg 7.3 K 0 % 0 % 0 % 0 m²/s² 0 0 7.66 3
18:00 0 J/kg 6.8 K 0 % 0 % 0 % 0 m²/s² 0 0 7.19 3
19:00 0 J/kg 6.4 K 0 % 0 % 0 % 0 m²/s² 0 0 7.24 3
20:00 0 J/kg 6.5 K 0 % 0 % 0 % 0 m²/s² 0 0 7.28 3
21:00 0 J/kg 6.6 K 0 % 0 % 0 % 0 m²/s² 0 0 7.47 3
22:00 0 J/kg 6.8 K 0 % 0 % 0 % 0 m²/s² 0 0 7.76 3
23:00 0 J/kg 6.9 K 0 % 0 % 0 % 0 m²/s² 0 0 7.95 2
Midzomernacht Morgen
00:00 0 J/kg 6.7 K 0 % 0 % 0 % 0 m²/s² 0 0 7.81 3
01:00 0 J/kg 6.5 K 0 % 0 % 0 % 0 m²/s² 0 0 7.67 3
02:00 0 J/kg 6.6 K 0 % 0 % 0 % 0 m²/s² 0 0 7.71 3
03:00 0 J/kg 6.4 K 0 % 0 % 0 % 0 m²/s² 0 0 7.66 3
04:00 0 J/kg 6.2 K 0 % 0 % 0 % 0 m²/s² 0 0 7.4 3
05:00 0 J/kg 6.1 K 0 % 0 % 0 % 0 m²/s² 0 0 7.42 3
06:00 0 J/kg 6.1 K 0 % 0 % 0 % 0 m²/s² 0 0 7.45 3
07:00 0 J/kg 6.0 K 0 % 0 % 0 % 0 m²/s² 0 0 7.62 3
08:00 0 J/kg 5.9 K 0 % 0 % 0 % 0 m²/s² 0 0 7.46 3
09:00 0 J/kg 6.0 K 0 % 0 % 0 % 0 m²/s² 0 0 7.74 2
10:00 0 J/kg 6.0 K 0 % 0 % 0 % 0 m²/s² 0 0 7.8 2
11:00 0 J/kg 5.7 K 0 % 0 % 0 % 0 m²/s² 0 0 7.68 2
12:00 0 J/kg 5.5 K 0 % 0 % 0 % 0 m²/s² 0 0 7.75 2
13:00 0 J/kg 5.2 K 0 % 0 % 0 % 0 m²/s² 0 0 7.66 1
14:00 0 J/kg 5.1 K 0 % 0 % 0 % 0 m²/s² 0 0 8.19 1
15:00 0 J/kg 5.3 K 0 % 0 % 0 % 0 m²/s² 0 0 9.02 0
16:00 0 J/kg 5.5 K 0 % 0 % 0 % 0 m²/s² 0 0 9.64 0
17:00 0 J/kg 5.6 K 0 % 0 % 0 % 0 m²/s² 0 0 9.62 0
18:00 0 J/kg 5.7 K 0 % 0 % 0 % 0 m²/s² 0 0 9.84 0
19:00 0 J/kg 6.3 K 0 % 0 % 0 % 0 m²/s² 0 0 10.89 0
20:00 0 J/kg 5.6 K 0 % 0 % 0 % 0 m²/s² 0 0 10.43 0
21:00 0 J/kg 4.9 K 0 % 0 % 0 % 0 m²/s² 0 0 10 1
22:00 0 J/kg 4.3 K 0 % 0 % 0 % 0 m²/s² 0 0 9.55 2
23:00 0 J/kg 4.5 K 0 % 0 % 0 % 0 m²/s² 0 0 9.63 3
Midzomernacht Vrijdag 21 Jun
00:00 0 J/kg 4.8 K 0 % 0 % 0 % 0 m²/s² 0 0 9.93 3
01:00 0 J/kg 4.7 K 0 % 0 % 0 % 0 m²/s² 0 0 9.59 3
02:00 0 J/kg 4.7 K 0 % 0 % 0 % 0 m²/s² 0 0 9.59 3
03:00 0 J/kg 4.5 K 0 % 0 % 0 % 0 m²/s² 0 0 9.15 3
04:00 0 J/kg 4.4 K 0 % 0 % 0 % 0 m²/s² 0 0 8.3 3
05:00 0 J/kg 4.0 K 0 % 0 % 0 % 0 m²/s² 0 0 7.27 3
06:00 0 J/kg 4.3 K 0 % 0 % 0 % 0 m²/s² 0 0 7.33 3
07:00 0 J/kg 4.8 K 0 % 0 % 0 % 0 m²/s² 0 0 6.57 3
08:00 0 J/kg 5.3 K 0 % 0 % 0 % 0 m²/s² 0 0 6.68 61
09:00 0 J/kg 5.2 K 0 % 0 % 0 % 0 m²/s² 0 0 5.92 61
10:00 0 J/kg 5.4 K 0 % 0 % 0 % 0 m²/s² 0 0 5.61 61
11:00 0 J/kg 6.6 K 0 % 0 % 0 % 0 m²/s² 0 0 6.78 61
12:00 0 J/kg 5.7 K 0 % 0 % 0 % 0 m²/s² 0 0 5.73 61
13:00 0 J/kg 6.7 K 0 % 0 % 0 % 0 m²/s² 0 0 6.73 61
14:00 0 J/kg 4.7 K 0 % 0 % 0 % 0 m²/s² 0 0 4.73 61
15:00 0 J/kg 4.0 K 0 % 0 % 0 % 0 m²/s² 0 0 4.18 61
16:00 0 J/kg 4.2 K 0 % 0 % 0 % 0 m²/s² 0 0 4.53 61
17:00 0 J/kg 3.9 K 0 % 0 % 0 % 0 m²/s² 0 0 4.23 61
18:00 0 J/kg 3.6 K 0 % 0 % 0 % 0 m²/s² 0 0 3.72 61
19:00 0 J/kg 3.4 K 0 % 0 % 0 % 0 m²/s² 0 0 3.61 61
20:00 0 J/kg 3.3 K 0 % 0 % 0 % 0 m²/s² 0 0 3.54 61
21:00 0 J/kg 3.7 K 0 % 0 % 0 % 0 m²/s² 0 0 4 61
22:00 0 J/kg 4.1 K 0 % 0 % 0 % 0 m²/s² 0 0 4.28 61
23:00 0 J/kg 4.4 K 0 % 0 % 0 % 0 m²/s² 0 0 4.58 45
Midzomernacht Zaterdag 22 Jun
00:00 1 J/kg 4.1 K 0 % 0 % 0 % 0 m²/s² 0 0 4.31 45
01:00 1 J/kg 4.2 K 0 % 0 % 0 % 0 m²/s² 0 0 4.32 61
02:00 0 J/kg 4.7 K 0 % 0 % 0 % 0 m²/s² 0 0 4.79 61
03:00 0 J/kg 5.1 K 0 % 0 % 0 % 0 m²/s² 0 0 5.13 3
04:00 0 J/kg 5.9 K 0 % 0 % 0 % 0 m²/s² 0 0 5.9 61
05:00 0 J/kg 6.3 K 0 % 0 % 0 % 0 m²/s² 0 0 6.3 3
06:00 0 J/kg 6.6 K 0 % 0 % 0 % 0 m²/s² 0 0 6.63 3
07:00 0 J/kg 6.8 K 0 % 0 % 0 % 0 m²/s² 0 0 6.83 61
08:00 0 J/kg 6.9 K 0 % 0 % 0 % 0 m²/s² 0 0 6.93 61
09:00 0 J/kg 7.2 K 0 % 0 % 0 % 0 m²/s² 0 0 7.23 61
10:00 0 J/kg 6.6 K 0 % 0 % 0 % 0 m²/s² 0 0 6.63 61
11:00 0 J/kg 6.2 K 0 % 0 % 0 % 0 m²/s² 0 0 6.38 61
12:00 0 J/kg 5.7 K 0 % 0 % 0 % 0 m²/s² 0 0 6.12 3
13:00 0 J/kg 5.1 K 0 % 0 % 0 % 0 m²/s² 0 0 6.66 61
Temp Baro Wind Neerslag
  EWN Forecast EWN WRFDA DWD ICON FMI HIRLAM MET Norway GFS
Midzomernacht Vandaag
14:00 9.5° 1009.8 hPa 3.2 m/s 0.0 mm 8.8° 1008.4 hPa 3.7 m/s 0.4 mm 9.2° 1009.5 hPa 2.0 m/s -1.7 mm 9.8° 1009.5 hPa 2.8 m/s 0.0 mm 10.8° 1010.2 hPa 3.3 m/s 0.3 mm 7.1° 1010.1 hPa 2.5 m/s
17:00 9.6° 1010.8 hPa 3.6 m/s 0.0 mm 9.8° 1008.7 hPa 3.9 m/s 0.6 mm 9.3° 1011.0 hPa 2.2 m/s 0.0 mm 10.0° 1010.0 hPa 3.8 m/s 0.0 mm 10.2° 1011.1 hPa 3.7 m/s 0.0 mm 7.2° 1011.0 hPa 2.5 m/s
20:00 8.4° 1011.3 hPa 2.4 m/s 0.0 mm 9.4° 1008.9 hPa 3.8 m/s 0.6 mm 8.3° 1011.1 hPa 1.2 m/s 0.0 mm 8.5° 1010.9 hPa 3.9 m/s 0.0 mm 8.6° 1011.8 hPa 2.2 m/s 0.5 mm 7.2° 1011.5 hPa 2.2 m/s
23:00 7.4° 1012.1 hPa 1.0 m/s 0.0 mm 8.4° 1009.8 hPa 2.5 m/s 0.6 mm 7.4° 1012.1 hPa 0.8 m/s 0.0 mm 7.2° 1011.5 hPa 3.0 m/s 0.0 mm 7.6° 1012.6 hPa 0.1 m/s 0.0 mm 6.8° 1012.8 hPa 1.5 m/s
Midzomernacht Morgen
02:00 6.7° 1013.0 hPa 0.9 m/s 0.0 mm 7.2° 1010.6 hPa 0.9 m/s 0.6 mm 6.8° 1012.9 hPa 0.8 m/s 0.0 mm 5.8° 1012.3 hPa 2.1 m/s 0.0 mm 7.3° 1013.5 hPa 0.6 m/s 0.0 mm 6.5° 1013.4 hPa 1.5 m/s
05:00 6.9° 1013.3 hPa 0.8 m/s 0.0 mm 7.6° 1010.8 hPa 0.9 m/s 0.6 mm 7.0° 1013.4 hPa 0.7 m/s 0.0 mm 6.4° 1012.3 hPa 1.0 m/s 0.0 mm 7.5° 1013.7 hPa 0.5 m/s 0.0 mm 7.0° 1013.3 hPa 0.9 m/s
08:00 8.3° 1013.3 hPa 1.1 m/s 0.0 mm 9.0° 1010.8 hPa 1.9 m/s 0.6 mm 8.1° 1013.7 hPa 0.8 m/s 0.0 mm 8.2° 1011.7 hPa 1.3 m/s 0.0 mm 9.4° 1013.6 hPa 1.2 m/s 0.0 mm 8.0° 1012.8 hPa 1.5 m/s
11:00 10.5° 1013.5 hPa 2.6 m/s 0.0 mm 10.9° 1011.4 hPa 3.2 m/s 0.6 mm 10.8° 1014.0 hPa 1.4 m/s 0.0 mm 10.0° 1012.0 hPa 2.6 m/s 0.0 mm 11.0° 1013.7 hPa 3.4 m/s 0.0 mm 8.6° 1013.1 hPa 3.4 m/s
14:00 11.6° 1013.8 hPa 2.9 m/s 0.0 mm 12.4° 1011.0 hPa 3.7 m/s 0.6 mm 12.6° 1013.6 hPa 2.0 m/s 0.0 mm 11.2° 1012.6 hPa 2.8 m/s 0.0 mm 11.8° 1014.3 hPa 3.8 m/s 0.0 mm 10.3° 1012.8 hPa 3.2 m/s
17:00 12.2° 1013.5 hPa 2.7 m/s 0.0 mm 13.2° 1010.9 hPa 3.6 m/s 0.6 mm 13.2° 1013.5 hPa 1.8 m/s 0.0 mm 11.6° 1012.8 hPa 2.3 m/s 0.0 mm 12.3° 1013.8 hPa 4.0 m/s 0.0 mm 11.7° 1012.8 hPa 3.4 m/s
20:00 11.2° 1012.8 hPa 2.2 m/s 0.0 mm 12.4° 1010.0 hPa 5.9 m/s 0.6 mm 13.2° 1012.9 hPa 1.3 m/s 0.0 mm 10.7° 1012.5 hPa 1.5 m/s 0.0 mm 11.1° 1012.9 hPa 3.2 m/s 0.0 mm 12.0° 1012.3 hPa 3.1 m/s
23:00 9.5° 1012.8 hPa 1.3 m/s 0.0 mm 10.3° 1010.3 hPa 6.4 m/s 0.6 mm 11.7° 1012.9 hPa 0.3 m/s 0.0 mm 9.0° 1013.4 hPa 1.6 m/s 0.0 mm 9.2° 1012.8 hPa 0.5 m/s 0.0 mm 9.9° 1012.5 hPa 1.8 m/s
Midzomernacht Vrijdag 21 Jun
02:00 9.6° 1012.4 hPa 1.6 m/s 0.0 mm 9.9° 1009.7 hPa 4.8 m/s 0.6 mm 10.5° 1012.4 hPa 1.2 m/s 0.0 mm 7.1° 1013.8 hPa 1.7 m/s 0.0 mm 9.9° 1012.2 hPa 0.6 m/s 0.0 mm 8.8° 1011.8 hPa 2.1 m/s
05:00 10.5° 1011.5 hPa 1.7 m/s 0.0 mm 10.5° 1008.3 hPa 6.4 m/s 0.6 mm 11.2° 1011.5 hPa 1.2 m/s 0.0 mm 8.2° 1013.1 hPa 0.5 m/s 0.0 mm 11.2° 1011.0 hPa 1.1 m/s 0.0 mm 9.1° 1010.4 hPa 3.7 m/s
08:00 11.5° 1009.7 hPa 2.7 m/s 0.0 mm 12.6° 1006.2 hPa 6.5 m/s 0.6 mm 12.1° 1009.2 hPa 2.8 m/s 0.5 mm 10.8° 1011.5 hPa 2.4 m/s 0.0 mm 11.5° 1009.5 hPa 0.6 m/s 0.0 mm 9.7° 1008.5 hPa 5.6 m/s
11:00 12.3° 1008.9 hPa 2.7 m/s 1.8 mm 13.4° 1005.6 hPa 7.6 m/s 0.7 mm 12.3° 1008.7 hPa 2.1 m/s 3.1 mm 11.1° 1009.0 hPa 1.2 m/s 1.0 mm 10.8° 1007.4 hPa 4.8 m/s
14:00 12.1° 1007.9 hPa 2.2 m/s 4.7 mm 11.7° 1004.6 hPa 6.9 m/s 9.6 mm 12.7° 1006.6 hPa 1.2 m/s 3.8 mm 11.0° 1008.3 hPa 1.2 m/s 3.3 mm 9.9° 1006.2 hPa 3.6 m/s
17:00 12.0° 1007.0 hPa 1.6 m/s 8.3 mm 12.2° 1003.7 hPa 2.9 m/s 20.7 mm 12.0° 1005.7 hPa 0.8 m/s 6.3 mm 10.7° 1007.3 hPa 1.0 m/s 3.9 mm 9.4° 1005.7 hPa 1.8 m/s
20:00 10.9° 1006.4 hPa 1.0 m/s 6.1 mm 10.7° 1002.8 hPa 1.6 m/s 24.2 mm 11.2° 1005.0 hPa 0.8 m/s 2.2 mm 10.6° 1006.6 hPa 0.2 m/s 2.6 mm 9.3° 1005.0 hPa 1.1 m/s
23:00 9.9° 1006.2 hPa 1.2 m/s 3.1 mm 9.1° 1002.8 hPa 3.7 m/s 26.9 mm 10.6° 1004.8 hPa 0.7 m/s 1.6 mm 9.9° 1006.6 hPa 1.1 m/s 0.5 mm 9.0° 1005.1 hPa 0.5 m/s
Midzomernacht Zaterdag 22 Jun
02:00 9.2° 1006.4 hPa 1.4 m/s 5.5 mm 7.0° 1001.6 hPa 4.0 m/s 34.0 mm 9.9° 1004.6 hPa 1.0 m/s 1.3 mm 9.3° 1007.0 hPa 1.2 m/s 0.8 mm 8.8° 1004.6 hPa 1.0 m/s
05:00 9.0° 1005.0 hPa 1.6 m/s 9.3 mm 5.9° 1000.5 hPa 2.5 m/s 65.3 mm 10.0° 1005.3 hPa 1.2 m/s 0.2 mm 9.2° 1005.1 hPa 1.7 m/s 8.5° 1004.2 hPa 0.6 m/s
08:00 8.9° 1003.4 hPa 2.3 m/s 33.1 mm 6.5° 999.0 hPa 4.5 m/s 115.1 mm 10.2° 1005.1 hPa 1.7 m/s 0.3 mm 9.1° 1003.2 hPa 2.2 m/s 8.2° 1003.4 hPa 0.5 m/s
11:00 9.4° 1003.2 hPa 2.3 m/s 31.7 mm 7.0° 999.4 hPa 2.1 m/s 147.7 mm 9.8° 1005.8 hPa 1.9 m/s 0.4 mm 9.6° 1003.2 hPa 2.5 m/s 8.4° 1003.6 hPa 1.9 m/s
14:00 9.5° 1003.2 hPa 2.2 m/s 57.2 mm 7.0° 999.9 hPa 1.3 m/s 171.2 mm 9.4° 1006.0 hPa 1.6 m/s 0.2 mm 10.1° 1003.1 hPa 2.9 m/s 7.9° 1003.6 hPa 3.1 m/s
17:00 9.5° 1003.6 hPa 2.5 m/s 11.6 mm 9.7° 1003.6 hPa 2.4 m/s 7.5° 1004.4 hPa 3.3 m/s 11.6 mm
20:00 9.3° 1004.0 hPa 2.3 m/s 12.8 mm 9.5° 1003.8 hPa 2.2 m/s 7.4° 1005.7 hPa 3.2 m/s 12.8 mm
23:00 8.6° 1004.9 hPa 2.1 m/s 13.8 mm 8.7° 1004.6 hPa 2.1 m/s 7.5° 1007.8 hPa 1.9 m/s 13.8 mm
Midzomernacht Zondag 23 Jun
02:00 7.9° 1005.8 hPa 1.9 m/s 14.3 mm 7.9° 1005.5 hPa 2.0 m/s 7.3° 1009.6 hPa 0.7 m/s 14.3 mm
05:00 7.7° 1007.2 hPa 1.9 m/s 16.2 mm 7.8° 1006.8 hPa 2.0 m/s 7.4° 1011.4 hPa 1.3 m/s 16.2 mm
08:00 7.6° 1008.5 hPa 1.9 m/s 17.7 mm 7.6° 1008.1 hPa 2.0 m/s 7.5° 1013.0 hPa 0.4 m/s 17.7 mm
11:00 8.8° 1010.9 hPa 1.9 m/s 18.2 mm 8.8° 1010.5 hPa 2.0 m/s 8.3° 1014.9 hPa 0.4 m/s 18.2 mm
14:00 9.9° 1013.2 hPa 1.9 m/s 18.9 mm 10.0° 1012.9 hPa 2.0 m/s 8.8° 1016.4 hPa 1.3 m/s 18.8 mm
17:00 10.2° 1014.4 hPa 2.0 m/s 19.0 mm 10.2° 1014.2 hPa 1.9 m/s 9.7° 1017.2 hPa 2.9 m/s 19.0 mm
20:00 10.3° 1015.7 hPa 1.7 m/s 19.2 mm 10.4° 1015.5 hPa 1.8 m/s 9.4° 1017.9 hPa 0.5 m/s 19.2 mm
23:00 9.1° 1017.2 hPa 1.3 m/s 19.4 mm 9.1° 1017.0 hPa 1.4 m/s 8.8° 1019.0 hPa 0.6 m/s 19.4 mm
Midzomernacht Maandag 24 Jun
02:00 7.8° 1018.6 hPa 0.9 m/s 19.5 mm 7.8° 1018.5 hPa 1.0 m/s 8.1° 1019.5 hPa 0.3 m/s 19.5 mm
05:00 8.6° 1019.4 hPa 1.7 m/s 19.5 mm 8.6° 1019.4 hPa 1.8 m/s 8.5° 1019.9 hPa 0.3 m/s 19.5 mm
08:00 9.4° 1020.2 hPa 2.5 m/s 19.5 mm 9.4° 1020.2 hPa 2.6 m/s 9.0° 1019.8 hPa 1.2 m/s 19.5 mm
11:00 10.2° 1021.3 hPa 3.2 m/s 19.6 mm 10.2° 1021.4 hPa 3.2 m/s 10.2° 1020.3 hPa 2.7 m/s 19.6 mm
14:00 11.1° 1022.4 hPa 3.8 m/s 19.7 mm 11.1° 1022.5 hPa 3.8 m/s 10.8° 1020.8 hPa 4.0 m/s 19.7 mm
17:00 10.7° 1023.1 hPa 3.6 m/s 19.7 mm 10.8° 1023.2 hPa 3.5 m/s 10.6° 1021.5 hPa 5.0 m/s 19.7 mm
20:00 10.3° 1023.8 hPa 3.1 m/s 20.0 mm 10.4° 1023.9 hPa 3.2 m/s 9.1° 1022.5 hPa 1.8 m/s 20.0 mm
23:00 9.2° 1024.3 hPa 2.5 m/s 20.0 mm 9.2° 1024.4 hPa 2.7 m/s 8.8° 1023.5 hPa 1.2 m/s 20.0 mm
Midzomernacht Dinsdag 25 Jun
02:00 8.1° 1024.9 hPa 2.0 m/s 20.1 mm 8.1° 1024.9 hPa 2.1 m/s 8.0° 1024.5 hPa 0.3 m/s 20.1 mm
05:00 8.6° 1024.8 hPa 3.2 m/s 20.2 mm 8.6° 1024.8 hPa 3.3 m/s 8.2° 1024.7 hPa 2.1 m/s 20.2 mm
08:00 9.0° 1024.8 hPa 4.4 m/s 20.2 mm 9.1° 1024.8 hPa 4.6 m/s 8.5° 1024.9 hPa 1.9 m/s 20.2 mm
11:00 9.9° 1025.0 hPa 4.5 m/s 20.2 mm 10.0° 1024.9 hPa 4.6 m/s 8.9° 1025.4 hPa 3.3 m/s 20.2 mm
14:00 10.8° 1025.1 hPa 4.6 m/s 20.3 mm 10.9° 1025.1 hPa 4.6 m/s 10.0° 1025.4 hPa 4.2 m/s 20.3 mm
17:00 10.3° 1024.5 hPa 4.0 m/s 20.3 mm 10.4° 1024.4 hPa 3.8 m/s 9.2° 1024.9 hPa 6.8 m/s 20.3 mm
20:00 9.9° 1023.8 hPa 3.1 m/s 20.3 mm 10.0° 1023.8 hPa 2.9 m/s 8.7° 1024.0 hPa 5.0 m/s 20.3 mm
23:00 9.1° 1023.0 hPa 2.7 m/s 20.3 mm 9.2° 1023.0 hPa 2.4 m/s 8.0° 1023.0 hPa 5.5 m/s 20.3 mm
Midzomernacht Woensdag 26 Jun
02:00 8.2° 1022.2 hPa 2.2 m/s 20.3 mm 8.3° 1022.3 hPa 1.9 m/s 7.6° 1021.1 hPa 5.9 m/s 20.3 mm
05:00 8.9° 1020.3 hPa 3.0 m/s 20.3 mm 8.9° 1020.4 hPa 2.8 m/s 8.9° 1018.8 hPa 5.5 m/s 20.3 mm
08:00 9.4° 1018.4 hPa 4.1 m/s 20.5 mm 9.5° 1018.5 hPa 3.7 m/s 8.8° 1016.8 hPa 8.9 m/s 20.5 mm
11:00 10.2° 1017.2 hPa 4.2 m/s 20.7 mm 10.3° 1017.3 hPa 3.9 m/s 8.9° 1016.2 hPa 8.5 m/s 20.7 mm
14:00 11.0° 1016.1 hPa 4.4 m/s 20.8 mm 11.2° 1016.1 hPa 4.0 m/s 8.4° 1016.3 hPa 8.3 m/s 20.8 mm
20:00 9.8° 1015.3 hPa 3.1 m/s 20.8 mm 10.1° 1015.1 hPa 2.9 m/s 6.9° 1017.5 hPa 4.8 m/s 20.8 mm
Midzomernacht Donderdag 27 Jun
02:00 7.6° 1013.3 hPa 2.2 m/s 20.9 mm 7.7° 1012.8 hPa 2.0 m/s 6.3° 1018.5 hPa 4.2 m/s 20.9 mm
08:00 7.8° 1012.2 hPa 3.3 m/s 20.9 mm 7.8° 1011.8 hPa 3.2 m/s 7.7° 1016.9 hPa 4.7 m/s 20.9 mm
14:00 9.5° 1012.0 hPa 4.2 m/s 20.9 mm 9.4° 1012.0 hPa 4.3 m/s 11.2° 1012.4 hPa 2.6 m/s 20.9 mm
20:00 8.2° 1011.2 hPa 3.6 m/s 21.4 mm 8.0° 1011.3 hPa 3.7 m/s 9.8° 1009.7 hPa 2.2 m/s 21.4 mm
Midzomernacht Vrijdag 28 Jun
02:00 6.2° 1010.6 hPa 2.1 m/s 22.1 mm 6.0° 1010.7 hPa 2.1 m/s 8.1° 1009.0 hPa 1.7 m/s 22.1 mm
08:00 7.5° 1010.9 hPa 3.7 m/s 22.2 mm 7.4° 1011.0 hPa 4.0 m/s 8.2° 1010.3 hPa 1.0 m/s 22.2 mm
14:00 8.8° 1008.6 hPa 3.6 m/s 22.3 mm 8.8° 1008.2 hPa 3.5 m/s 8.7° 1012.8 hPa 4.2 m/s 22.3 mm
20:00 8.4° 1008.2 hPa 3.1 m/s 22.3 mm 8.6° 1007.6 hPa 2.8 m/s 6.6° 1014.8 hPa 6.1 m/s 22.3 mm
Midzomernacht Zaterdag 29 Jun
02:00 5.4° 1015.6 hPa 1.9 m/s 22.3 mm 5.4° 1015.6 hPa 1.9 m/s 22.3 mm
08:00 9.8° 1012.6 hPa 1.2 m/s 0.7 mm
14:00 12.4° 1011.9 hPa 1.9 m/s 0.5 mm
20:00 11.4° 1011.5 hPa 1.8 m/s 0.6 mm
Midzomernacht Zondag 30 Jun
02:00 8.3° 1011.6 hPa 0.7 m/s 0.7 mm
08:00 10.2° 1011.0 hPa 0.8 m/s 0.9 mm
14:00 12.7° 1010.7 hPa 1.3 m/s 0.9 mm
20:00 11.9° 1010.6 hPa 1.5 m/s 0.7 mm
Midzomernacht Maandag 01 Jul
02:00 8.8° 1010.6 hPa 0.9 m/s 1.0 mm
08:00 11.1° 1009.6 hPa 0.4 m/s 0.9 mm
14:00 13.7° 1009.4 hPa 1.2 m/s 1.3 mm
20:00 12.1° 1009.9 hPa 1.6 m/s 1.1 mm
Midzomernacht Dinsdag 02 Jul
02:00 9.1° 1010.9 hPa 1.4 m/s 0.7 mm
08:00 11.0° 1011.0 hPa 1.3 m/s 0.6 mm
14:00 13.3° 1011.1 hPa 1.5 m/s 0.6 mm
20:00 12.0° 1011.2 hPa 1.6 m/s 1.0 mm
Midzomernacht Woensdag 03 Jul
02:00 9.2° 1011.6 hPa 0.6 m/s 1.2 mm
08:00 11.4° 1010.9 hPa 0.7 m/s 0.6 mm
14:00 14.0° 1010.7 hPa 1.6 m/s 1.2 mm
20:00 13.4° 1010.8 hPa 1.5 m/s 0.7 mm
Midzomernacht Donderdag 04 Jul
02:00 10.2° 1011.3 hPa 0.4 m/s 0.5 mm
08:00 12.9° 1011.1 hPa 0.6 m/s 0.7 mm
FMI Hirlam - 7.5 km EWN WRFDA - 12 km DWD ICON - 7 km GFS - 25 km Basiskaart






























































Updatetijd (Europe/Amsterdam) Resolutie Lengte Stap
FMI Hirlam 13:00, 19:00, 01:00, 07:00 7.5 km 49h 1h
EWN WRFDA 10:15, 16:15, 22:15, 04:15 12 km 73h 1h
DWD ICON 11:45, 17:45, 23:45, 05:45 7 km 75h 1h
GFS 08:45, 14:45, 20:45, 02:45 25 km 237h 3h
30+ mm
25-30 mm
20-25 mm
15-20 mm
10-15 mm
6-10 mm
4-6 mm
2-4 mm
1-2 mm
0.5-1 mm
0.2-0.5 mm
0.1-0.2 mm
30+ mm
25-30 mm
20-25 mm
15-20 mm
10-15 mm
6-10 mm
4-6 mm
2-4 mm
1-2 mm
0.5-1 mm
0.2-0.5 mm
0.1-0.2 mm
Sneeuwval
Natte sneeuw
Hagel
Vorst
30+ mm
25-30 mm
20-25 mm
15-20 mm
10-15 mm
6-10 mm
4-6 mm
2-4 mm
1-2 mm
0.5-1 mm
0.2-0.5 mm
0.1-0.2 mm
Sneeuwval
Natte sneeuw
Hagel
Vorst
Onweer
50 mm
40 mm
30 mm
26 mm
22 mm
18 mm
14 mm
10 mm
9 mm
8 mm
7 mm
6 mm
5 mm
4.5 mm
4 mm
3.5 mm
3 mm
2.5 mm
2 mm
1.5 mm
1 mm
0.8 mm
0.6 mm
0.4 mm
0.2 mm
0.05 mm
35°
30°
25°
20°
15°
10°
-5°
-10°
-15°
-20°
-25°
-30°
-35°
33> m/s
29 m/s
25 m/s
21 m/s
17 m/s
14 m/s
11 m/s
8 m/s
5 m/s
3 m/s
0 m/s
2600 J/kg
2400 J/kg
2200 J/kg
2000 J/kg
1800 J/kg
1600 J/kg
1400 J/kg
1200 J/kg
1000 J/kg
800 J/kg
600 J/kg
400 J/kg
200 J/kg
70 dBZ
65 dBZ
60 dBZ
55 dBZ
50 dBZ
45 dBZ
40 dBZ
35 dBZ
30 dBZ
25 dBZ
20 dBZ
15 dBZ
10 dBZ
5 dBZ
-1 K
-2 K
-3 K
-4 K
-5 K
-6 K
-7 K
-8 K
-9 K
950 m²/s²
900 m²/s²
850 m²/s²
800 m²/s²
750 m²/s²
700 m²/s²
650 m²/s²
600 m²/s²
550 m²/s²
500 m²/s²
450 m²/s²
400 m²/s²
350 m²/s²
300 m²/s²
250 m²/s²
200 m²/s²
150 m²/s²
100 m²/s²
46 m/s
44 m/s
42 m/s
40 m/s
38 m/s
36 m/s
34 m/s
32 m/s
30 m/s
28 m/s
26 m/s
24 m/s
22 m/s
20 m/s
16 m/s
12 m/s
8 m/s
4 m/s
30 m/s
28 m/s
26 m/s
24 m/s
22 m/s
20 m/s
18 m/s
16 m/s
14 m/s
12 m/s
10 m/s
8 m/s
6 m/s
4 m/s
2 m/s
3.0
2.8
2.6
2.4
2.2
2.0
1.8
1.6
1.4
1.2
1.0
0.8
0.6
0.4
0.2
15
14
13
12
11
10
9
8
7
6
5
4
3
2
1
90%
80%
70%
60%
50%
40%
30%
20%
10%
42
40
38
36
34
32
30
28
26
24
22
20
18
16
14
12
90+ cm
80-90 cm
70-80 cm
60-70 cm
50-60 cm
40-50 cm
30-40 cm
20-30 cm
10-20 cm
1-10 cm
Sneeuwval
Natte sneeuw
Regen
>120 mm
115 mm
110 mm
105 mm
100 mm
95 mm
90 mm
85 mm
80 mm
75 mm
70 mm
65 mm
60 mm
55 mm
50 mm
45 mm
45 mm
40 mm
35 mm
30 mm
25 mm
20 mm
15 mm
10 mm
5 mm
0.1 mm
960 hPa
880 hPa
800 hPa
720 hPa
640 hPa
560 hPa
584 gpdm
568 gpdm
552 gpdm
536 gpdm
520 gpdm
504 gpdm
488 gpdm
Extreem zwaar Noodweer Kans op onweer
15% 15% 5% 50% 15%

Dag




Kaart






35°
30°
25°
20°
15°
10°
-5°
-10°
-15°
-20°
-25°
-30°
-35°